Maniitsoq

KL  EN  DA
ASIAQ
Weather Now GREENLAND SURVEY
Updated [WGT/WGST] Temperature [°C] Wind [m/s] Air pressure [hPa] Relative humidity [%] Precipitation [mm]
Present Wind chill Speed Max
30.11 16:00-4,20,00,5 ⇘1,599673n/a
30.11 15:00-4,10,00,7 ⇘1,499669n/a
30.11 14:00-4,0-8,63,4 ⇙4,099666n/a
30.11 13:00-4,1-7,42,1 ⇐2,899670n/a
30.11 12:00-3,7-8,94,0 ⇙5,099767n/a
30.11 11:00-3,6-6,01,6 ⇙2,699867n/a
30.11 10:00-2,8-6,32,5 ⇓3,599970n/a
30.11 09:00-3,50,01,1 ⇘1,4100068n/a
30.11 08:00-2,80,00,9 ⇓1,6100071n/a
30.11 07:00-2,8-6,42,6 ⇙3,4100170n/a
30.11 06:00-2,4-7,13,8 ⇐5,4100270n/a
30.11 05:00-1,8-6,84,4 ⇙5,8100266n/a
30.11 04:00-2,3-7,24,1 ⇐5,4100375n/a
30.11 03:00-2,9-8,04,2 ⇐5,7100495n/a
30.11 02:00-2,5-8,15,0 ⇐6,9100497n/a
30.11 01:00-2,2-8,46,2 ⇐8,2100597n/a
30.11 00:00-2,2-8,97,4 ⇖9,9100597n/a
29.11 23:00-2,3-7,74,8 ⇐6,7100697n/a
29.11 22:00-1,7-9,210,0 ⇖11,3100696n/a
29.11 21:00-1,1-8,29,1 ⇖10,9100693n/a
29.11 20:00-1,6-8,58,0 ⇖10,2100695n/a
29.11 19:00-1,4-7,87,1 ⇖9,3100692n/a
29.11 18:00-1,2-5,53,6 ⇑4,5100688n/a
29.11 17:00-1,0-7,57,9 ⇑11,6100688n/a
29.11 16:00-0,2-7,19,5 ⇑11,2100678n/a
Position: (65.416667,-52.933333)

[Back]